period_start,C,m1,H,J0,J1,J2,J3,J4,J5,JA,JB,JC,JD,JJ,JK,JN,#
2018-09-20 00:04:16,0.00,0.00,0.00,26.31,29.77,30.92,0.00,-4.00,1022.03,2015.99,3942.00,3011.99,3390.98,0.00,0.00,0.00,0000 0000 0000 A000 020008
2018-09-20 00:09:17,0.00,0.00,0.00,26.33,29.76,30.92,0.00,-4.00,1022.02,2016.00,3942.00,3012.00,3390.99,0.00,0.00,0.00,0000 0000 0000 A000 020008
2018-09-20 00:14:18,0.00,0.00,0.00,26.35,29.74,30.93,0.00,-3.99,1022.01,2016.04,3942.08,3012.04,3390.99,0.00,0.00,0.00,0000 0000 0000 A000 020008
2018-09-20 00:19:20,0.00,0.00,0.00,26.37,29.72,30.93,0.00,-3.98,1022.00,2016.09,3942.40,3012.26,3390.99,0.00,0.00,0.00,0000 0000 0000 A000 020008
2018-09-20 00:24:21,0.00,0.00,0.00,26.36,29.71,30.95,0.00,-3.98,1022.00,2016.16,3942.56,3012.47,3390.99,0.00,0.00,0.00,0000 0000 0000 A000 020008
2018-09-20 00:29:22,0.00,0.00,0.00,26.37,29.70,30.96,0.00,-3.99,1022.01,2016.39,3942.88,3012.82,3390.99,0.00,0.00,0.00,0000 0000 0000 A000 020008
2018-09-20 00:34:23,0.00,0.00,0.00,26.36,29.70,30.98,0.00,-3.99,1021.99,2016.46,3942.93,3012.88,3391.00,0.00,0.00,0.00,0000 0000 0000 A000 020008
2018-09-20 00:39:24,0.00,0.00,0.00,26.36,29.68,31.00,0.00,-3.99,1021.99,2016.61,3942.97,3012.94,3391.01,0.00,0.00,0.00,0000 0000 0000 A000 020008
2018-09-20 00:44:26,0.00,0.00,0.00,26.38,29.67,31.03,0.00,-4.00,1021.99,2016.84,3942.99,3012.97,3391.07,0.00,0.00,0.00,0000 0000 0000 A000 020008
2018-09-20 00:49:27,0.00,0.00,0.00,26.39,29.67,31.02,0.00,-3.99,1021.99,2016.88,3942.99,3012.99,3391.14,0.00,0.00,0.00,0000 0000 0000 A000 020008
2018-09-20 00:54:28,0.00,0.00,0.00,26.43,29.67,31.07,0.00,-4.00,1021.99,2016.92,3942.99,3012.99,3391.19,0.00,0.00,0.00,0000 0000 0000 A000 020008
2018-09-20 00:59:29,0.00,0.00,0.00,26.42,29.67,31.06,0.00,-4.00,1021.99,2016.91,3942.99,3012.99,3391.08,0.00,0.00,0.00,0000 0000 0000 A000 020008
2018-09-20 01:04:30,0.00,0.00,0.00,26.34,29.67,31.02,0.00,-4.00,1021.99,2016.90,3942.99,3012.99,3391.11,0.00,0.00,0.00,0000 0000 0000 A000 020008
2018-09-20 01:09:32,0.00,0.00,0.00,26.19,29.68,31.02,0.00,-4.00,1021.99,2016.85,3942.99,3012.99,3391.06,0.00,0.00,0.00,0000 0000 0000 A000 020008
2018-09-20 01:14:32,0.00,0.00,0.00,26.06,29.68,31.00,0.00,-4.00,1021.98,2016.89,3942.99,3012.99,3391.11,0.00,0.00,0.00,0000 0000 0000 A000 020008
2018-09-20 01:19:33,0.00,0.00,0.00,25.91,29.67,30.89,0.00,-4.00,1021.99,2016.89,3942.99,3012.99,3391.14,0.00,0.00,0.00,0000 0000 0000 A000 020008
2018-09-20 01:24:34,0.00,0.00,0.00,25.75,29.67,30.98,0.00,-4.00,1021.99,2016.95,3942.99,3012.99,3391.40,0.00,0.00,0.00,0000 0000 0000 A000 020008
2018-09-20 01:29:36,0.00,0.00,0.00,25.60,29.67,31.23,0.00,-4.00,1021.99,2016.93,3943.00,3012.99,3391.38,0.00,0.00,0.00,0000 0000 0000 A000 020008
2018-09-20 01:34:37,0.00,0.00,0.00,25.59,29.66,31.37,0.00,-3.99,1021.99,2016.92,3943.00,3012.99,3391.25,0.00,0.00,0.00,0000 0000 0000 A000 020008
2018-09-20 01:39:38,0.00,0.00,0.00,25.62,29.67,31.49,0.00,-4.00,1021.99,2016.89,3943.00,3012.99,3391.12,0.00,0.00,0.00,0000 0000 0000 A000 020008
2018-09-20 01:44:39,0.00,0.00,0.00,25.67,29.67,31.64,0.00,-4.00,1021.99,2016.89,3943.00,3012.99,3391.08,0.00,0.00,0.00,0000 0000 0000 A000 020008
2018-09-20 01:49:41,0.00,0.00,0.00,25.72,29.67,31.77,0.00,-4.00,1021.99,2016.67,3943.00,3012.98,3391.02,0.00,0.00,0.00,0000 0000 0000 A000 020008
2018-09-20 01:54:42,0.00,0.00,0.00,25.77,29.70,31.89,0.00,-4.00,1021.99,2016.25,3942.98,3012.94,3391.00,0.00,0.00,0.00,0001 0000 0000 A000 420008
2018-09-20 01:59:43,0.00,0.00,0.00,25.81,29.71,31.99,0.00,-4.00,1021.99,2016.10,3942.92,3012.73,3391.00,0.00,0.00,0.00,0001 0000 0000 A000 420008
2018-09-20 02:04:44,0.00,0.00,0.00,25.83,29.73,32.05,0.00,-4.00,1021.99,2016.02,3942.62,3012.30,3391.00,0.00,0.00,0.00,0001 0000 0000 A000 420008
2018-09-20 02:09:45,0.00,0.00,0.00,25.84,29.76,32.08,0.00,-4.00,1021.99,2016.01,3942.30,3012.08,3390.99,0.00,0.00,0.00,0000 0000 0000 A000 020008
2018-09-20 02:14:46,0.00,0.00,0.00,25.85,29.77,32.11,0.00,-4.00,1021.99,2016.00,3942.02,3012.01,3390.89,0.00,0.00,0.00,0000 0000 0000 A000 020008
2018-09-20 02:19:47,0.00,0.00,0.00,25.85,29.80,32.10,0.00,-4.00,1021.99,2016.00,3942.00,3012.00,3390.41,0.00,0.00,0.00,0000 0000 0000 A000 020008
2018-09-20 02:24:49,0.00,0.00,0.00,25.85,29.82,32.13,0.00,-4.00,1021.99,2016.00,3942.00,3012.00,3390.13,0.00,0.00,0.00,0000 0000 0000 A000 020008
2018-09-20 02:29:50,0.00,0.00,0.00,25.84,29.84,32.15,0.00,-4.00,1021.99,2016.00,3941.99,3011.99,3390.03,0.00,0.00,0.00,0000 0000 0000 A000 020008
2018-09-20 02:34:51,0.00,0.00,0.00,25.83,29.86,32.13,0.00,-4.01,1021.99,2015.99,3941.92,3011.96,3390.00,0.00,0.00,0.00,0000 0000 0000 A000 020008
2018-09-20 02:39:52,0.00,0.00,0.00,25.82,29.88,32.16,0.00,-4.01,1021.99,2015.97,3941.49,3011.70,3390.00,0.00,0.00,0.00,0000 0000 0000 A000 020008
2018-09-20 02:44:53,0.00,0.00,0.00,25.82,29.90,32.15,0.00,-4.00,1021.99,2015.90,3941.04,3011.16,3389.97,0.00,0.00,0.00,0000 0000 0000 A000 020008
2018-09-20 02:49:54,0.00,0.00,0.00,25.80,29.92,32.13,0.00,-4.03,1021.99,2015.79,3941.01,3011.04,3389.91,0.00,0.00,0.00,0000 0000 0000 A000 020008
2018-09-20 02:54:55,0.00,0.00,0.00,25.80,29.93,32.10,0.00,-4.05,1021.99,2015.45,3941.00,3011.01,3389.50,0.00,0.00,0.00,0001 0000 0000 A000 420008
2018-09-20 02:59:57,0.00,0.00,0.00,25.79,29.95,32.16,0.00,-4.02,1021.99,2015.21,3941.00,3011.00,3389.15,0.00,0.00,0.00,0001 0000 0000 A000 420008
2018-09-20 03:04:58,0.00,0.00,0.00,25.77,29.96,32.12,-0.00,-4.04,1021.99,2015.07,3940.98,3011.00,3389.01,0.00,0.00,0.00,0001 0000 0000 A000 420008
2018-09-20 03:09:59,0.00,0.00,0.00,25.76,29.97,32.10,0.00,-4.03,1021.99,2015.04,3940.96,3011.00,3389.01,0.00,0.00,0.00,0001 0000 0000 A000 420008
2018-09-20 03:15:00,0.00,0.00,0.00,25.75,29.98,32.16,0.00,-4.08,1021.99,2015.03,3940.91,3010.99,3389.00,0.00,0.00,0.00,0001 0000 0000 A000 420008
2018-09-20 03:20:01,0.00,0.00,0.00,25.73,30.00,32.11,0.00,-4.07,1021.99,2015.02,3940.81,3010.98,3389.00,0.00,0.00,0.00,0001 0000 0000 A000 420008
2018-09-20 03:25:02,0.00,0.00,0.00,25.72,30.00,32.07,0.00,-4.12,1021.99,2015.00,3940.49,3010.95,3389.00,0.00,0.00,0.00,0000 0000 0000 A000 020008
2018-09-20 03:30:03,0.00,0.00,0.00,25.71,30.01,32.16,0.00,-4.08,1021.99,2015.00,3940.15,3010.91,3388.98,0.00,0.00,0.00,0000 0000 0000 A000 020008
2018-09-20 03:35:05,0.00,0.00,0.00,25.70,30.02,32.09,0.00,-4.12,1021.99,2015.00,3940.04,3010.77,3388.97,0.00,0.00,0.00,0000 0000 0000 A000 020008
2018-09-20 03:40:06,0.00,0.00,0.00,25.70,30.02,32.12,0.00,-4.10,1021.99,2015.00,3940.04,3010.81,3388.97,0.00,0.00,0.00,0000 0000 0000 A000 020008
2018-09-20 03:45:07,0.00,0.00,0.00,25.70,30.02,32.05,0.00,-4.13,1021.99,2015.00,3940.09,3010.88,3388.98,0.00,0.00,0.00,0000 0000 0000 A000 020008
2018-09-20 03:50:08,0.00,0.00,0.00,25.70,30.02,32.03,0.00,-4.08,1021.99,2015.00,3940.02,3010.53,3388.93,0.00,0.00,0.00,0000 0000 0000 A000 020008
2018-09-20 03:55:10,0.00,0.00,0.00,25.70,30.02,32.10,0.00,-4.08,1021.99,2014.99,3940.00,3010.22,3388.71,0.00,0.00,0.00,0000 0000 0000 A000 020008
2018-09-20 04:00:11,0.00,0.00,0.00,25.68,30.02,32.08,-0.00,-4.11,1021.99,2014.98,3940.00,3010.10,3388.53,0.00,0.00,0.00,0000 0000 0000 A000 020008
2018-09-20 04:05:12,0.00,0.00,0.00,25.67,30.02,32.05,0.00,-4.17,1021.99,2014.98,3940.00,3010.08,3388.44,0.00,0.00,0.00,0000 0000 0000 A000 020008
2018-09-20 04:10:13,0.00,0.00,0.00,25.66,30.02,32.10,0.00,-4.14,1021.99,2014.97,3940.00,3010.03,3388.16,0.00,0.00,0.00,0000 0000 0000 A000 020008
2018-09-20 04:15:14,0.00,0.00,0.00,25.65,30.02,32.03,0.00,-4.15,1021.99,2014.93,3940.00,3010.03,3388.07,0.00,0.00,0.00,0000 0000 0000 A000 020008
2018-09-20 04:20:15,0.00,0.00,0.00,25.60,30.02,32.03,-0.01,-4.15,1021.99,2014.98,3939.99,3010.04,3388.21,0.00,0.00,0.00,0000 0000 0000 A000 020008
2018-09-20 04:25:16,0.00,0.00,0.00,25.58,30.02,31.91,-0.00,-4.15,1021.99,2014.98,3939.99,3010.05,3388.23,0.00,0.00,0.00,0000 0000 0000 A000 020008
2018-09-20 04:30:18,0.00,0.00,0.00,25.55,30.02,31.96,-0.01,-4.13,1021.99,2014.97,3939.99,3010.10,3388.35,0.00,0.00,0.00,0000 0000 0000 A000 020008
2018-09-20 04:35:19,0.00,0.00,0.00,25.52,30.02,31.96,-0.00,-4.22,1021.99,2014.97,3939.99,3010.10,3388.34,0.00,0.00,0.00,0000 0000 0000 A000 020008
2018-09-20 04:40:20,0.00,0.00,0.00,25.50,30.01,32.02,-0.01,-4.21,1021.99,2014.98,3939.99,3010.10,3388.40,0.00,0.00,0.00,0000 0000 0000 A000 020008
2018-09-20 04:45:21,0.00,0.00,0.00,25.48,30.00,31.97,-0.01,-4.17,1021.99,2014.96,3939.99,3010.14,3388.44,0.00,0.00,0.00,0000 0000 0000 A000 020008
2018-09-20 04:50:23,0.00,0.00,0.00,25.47,30.00,31.89,-0.00,-4.17,1021.99,2014.98,3939.99,3010.21,3388.48,0.00,0.00,0.00,0000 0000 0000 A000 020008
2018-09-20 04:55:24,0.00,0.00,0.00,25.45,30.00,31.99,-0.00,-4.15,1021.99,2014.97,3939.99,3010.27,3388.59,0.00,0.00,0.00,0000 0000 0000 A000 020008
2018-09-20 05:00:25,0.00,0.00,0.00,25.45,30.00,31.98,-0.01,-4.20,1021.98,2014.99,3939.99,3010.32,3388.68,0.00,0.00,0.00,0000 0000 0000 A000 020008
2018-09-20 05:05:26,0.00,0.00,0.00,25.45,30.00,32.03,-0.01,-4.15,1021.98,2014.99,3940.00,3010.55,3388.84,0.00,0.00,0.00,0000 0000 0000 A000 020008
2018-09-20 05:10:27,0.00,0.00,0.00,25.42,29.99,31.97,-0.01,-4.20,1021.99,2014.98,3940.00,3010.46,3388.75,0.00,0.00,0.00,0000 0000 0000 A000 020008
2018-09-20 05:15:29,0.00,0.00,0.00,25.42,29.98,32.02,-0.01,-4.23,1021.97,2014.99,3940.00,3010.68,3388.84,0.00,0.00,0.00,0000 0000 0000 A000 020008
2018-09-20 05:20:30,0.00,0.00,0.00,25.41,29.97,32.09,-0.01,-4.19,1021.98,2014.99,3940.02,3010.79,3388.93,0.00,0.00,0.00,0000 0000 0000 A000 020008
2018-09-20 05:25:31,0.00,0.00,0.00,25.40,29.97,31.99,-0.01,-4.23,1021.96,2014.99,3940.02,3010.90,3388.97,0.00,0.00,0.00,0000 0000 0000 A000 020008
2018-09-20 05:30:32,0.00,0.00,0.00,25.39,29.97,32.09,-0.02,-4.22,1021.94,2014.99,3940.03,3010.89,3388.96,0.00,0.00,0.00,0000 0000 0000 A000 020008
2018-09-20 05:35:33,0.00,0.00,0.00,25.39,29.97,32.08,-0.02,-4.22,1021.94,2014.99,3940.01,3010.82,3388.90,0.00,0.00,0.00,0000 0000 0000 A000 020008
2018-09-20 05:40:34,0.00,0.00,0.00,25.38,29.95,31.95,-0.02,-4.20,1021.88,2014.99,3940.01,3010.94,3388.96,0.00,0.00,0.00,0000 0000 0000 A000 020008
2018-09-20 05:45:35,0.00,0.00,0.00,25.37,29.95,31.95,-0.03,-4.19,1021.82,2014.99,3940.01,3010.88,3388.95,0.00,0.00,0.00,0000 0000 0000 A000 020008
2018-09-20 05:50:36,0.00,0.00,0.00,25.36,29.95,31.95,-0.01,-4.18,1021.68,2014.99,3940.04,3010.96,3388.98,0.00,0.00,0.00,0000 0000 0000 A000 020008
2018-09-20 05:55:38,0.00,0.00,0.00,25.35,29.95,31.98,-0.02,-4.21,1021.76,2014.99,3940.07,3010.98,3388.99,0.00,0.00,0.00,0000 0000 0000 A000 020008
2018-09-20 06:00:39,0.00,0.00,0.00,25.33,29.93,31.98,-0.02,-4.22,1021.83,2015.00,3940.40,3010.99,3388.99,0.00,0.00,0.00,0001 0000 0000 A000 420008
2018-09-20 06:05:40,0.00,0.00,0.00,25.32,29.92,31.96,-0.03,-4.23,1021.87,2015.00,3940.38,3010.99,3388.99,0.00,0.00,0.00,0000 0000 0000 A000 020008
2018-09-20 06:10:42,0.00,0.00,0.00,25.30,29.92,32.01,-0.04,-4.23,1021.92,2015.00,3940.50,3010.99,3388.99,0.00,0.00,0.00,0001 0000 0000 A000 420008
2018-09-20 06:15:43,0.00,0.00,0.00,25.28,29.91,31.96,-0.04,-4.23,1021.85,2015.01,3940.69,3010.99,3388.99,0.00,0.00,0.00,0001 0000 0000 A000 420008
2018-09-20 06:20:44,0.00,0.00,0.00,25.26,29.90,31.89,-0.03,-4.20,1021.69,2015.05,3940.96,3010.99,3389.00,0.00,0.00,0.00,0001 0000 0000 A000 420008
2018-09-20 06:25:46,0.00,0.00,0.00,25.23,29.90,31.94,-0.04,-4.22,1021.63,2015.09,3940.99,3011.02,3389.06,0.00,0.00,0.00,0001 0000 0000 A000 420008
2018-09-20 06:30:47,0.00,0.00,0.00,25.21,29.89,31.89,-0.04,-4.22,1021.72,2015.27,3940.99,3011.07,3389.20,0.00,0.00,0.00,0001 0000 0000 A000 420008
2018-09-20 06:35:48,0.00,0.00,0.00,25.20,29.87,31.81,-0.04,-4.21,1021.76,2015.36,3941.00,3011.11,3389.43,0.00,0.00,0.00,0000 0000 0000 A000 020008
2018-09-20 06:40:49,0.00,0.00,0.00,25.18,29.87,31.83,-0.04,-4.25,1021.78,2015.37,3941.00,3011.17,3389.58,0.00,0.00,0.00,0000 0000 0000 A000 020008
2018-09-20 06:45:50,0.00,0.00,0.00,25.16,29.85,31.81,-0.04,-4.22,1021.83,2015.59,3941.00,3011.28,3389.71,0.00,0.00,0.00,0000 0000 0000 A000 020008
2018-09-20 06:50:51,0.00,0.00,0.00,25.14,29.85,31.83,-0.04,-4.22,1021.85,2015.72,3941.03,3011.66,3389.91,0.00,0.00,0.00,0000 0000 0000 A000 020008
2018-09-20 06:55:53,0.00,0.00,0.00,25.12,29.83,31.71,-0.04,-4.24,1021.86,2015.91,3941.07,3011.90,3389.97,0.00,0.00,0.00,0000 0000 0000 A000 020008
2018-09-20 07:00:54,0.00,0.00,0.00,25.10,29.82,31.74,-0.04,-4.22,1021.91,2015.94,3941.10,3011.90,3389.97,0.00,0.00,0.00,0000 0000 0000 A000 020008
2018-09-20 07:05:55,0.00,0.00,0.00,25.08,29.81,31.72,-0.03,-4.21,1021.86,2015.95,3941.11,3011.96,3389.96,0.00,0.00,0.00,0000 0000 0000 A000 020008
2018-09-20 07:10:56,0.00,0.00,0.00,25.06,29.80,31.67,-0.05,-4.24,1021.88,2015.95,3941.46,3011.98,3389.99,0.00,0.00,0.00,0000 0000 0000 A000 020008
2018-09-20 07:15:58,0.00,0.00,0.00,25.04,29.78,31.68,-0.04,-4.24,1021.86,2015.98,3941.76,3011.99,3389.99,0.00,0.00,0.00,0000 0000 0000 A000 020008
2018-09-20 07:20:59,0.00,0.00,0.00,25.02,29.77,31.65,-0.05,-4.22,1021.85,2015.99,3941.98,3011.99,3389.99,0.00,0.00,0.00,0000 0000 0000 A000 020008
2018-09-20 07:26:00,0.00,0.00,0.00,25.00,29.76,31.62,-0.05,-4.21,1021.90,2015.99,3941.97,3011.99,3389.99,0.00,0.00,0.00,0000 0000 0000 A000 020008
2018-09-20 07:31:01,0.00,0.00,0.00,24.98,29.75,31.63,-0.05,-4.22,1021.93,2015.99,3941.99,3012.00,3390.08,0.00,0.00,0.00,0000 0000 0000 A000 020008
2018-09-20 07:36:03,0.00,0.00,0.00,24.96,29.72,31.53,-0.05,-4.22,1021.98,2015.99,3941.99,3012.01,3390.20,0.00,0.00,0.00,0000 0000 0000 A000 020008
2018-09-20 07:41:04,0.00,0.00,0.00,24.94,29.71,31.50,-0.05,-4.22,1021.98,2015.99,3941.99,3012.03,3390.30,0.00,0.00,0.00,0000 0000 0000 A000 020008
2018-09-20 07:46:05,0.00,0.00,0.00,24.92,29.70,31.58,-0.05,-4.22,1021.99,2015.99,3942.01,3012.16,3390.78,0.00,0.00,0.00,0000 0000 0000 A000 020008
2018-09-20 07:51:07,0.00,0.00,0.00,24.90,29.68,31.49,-0.05,-4.23,1021.99,2016.00,3942.05,3012.49,3390.96,0.00,0.00,0.00,0000 0000 0000 A000 020008
2018-09-20 07:56:08,0.00,0.00,0.00,24.87,29.66,31.47,-0.05,-4.23,1021.99,2016.02,3942.29,3012.83,3390.98,0.00,0.00,0.00,0001 0000 0000 A000 420008
2018-09-20 08:01:09,0.00,0.00,0.00,24.86,29.65,31.50,-0.05,-4.17,1021.99,2016.03,3942.89,3012.98,3390.99,0.00,0.00,0.00,0001 0000 0000 A000 420008
2018-09-20 08:06:10,0.00,0.00,0.00,24.85,29.63,31.45,-0.05,-4.11,1021.99,2016.06,3942.96,3012.99,3390.99,0.00,0.00,0.00,0001 0000 0000 A000 420008
2018-09-20 08:11:11,0.00,0.00,0.00,24.82,29.61,31.47,-0.05,-4.11,1021.99,2016.17,3942.98,3012.99,3390.99,0.00,0.00,0.00,0001 0000 0000 A000 420008
2018-09-20 08:16:12,0.00,0.00,0.00,24.80,29.60,31.39,-0.04,-4.18,1021.99,2016.43,3943.00,3013.01,3391.00,0.00,0.00,0.00,0000 0000 0000 A000 020008
2018-09-20 08:21:13,0.00,0.00,0.00,24.77,29.57,31.36,-0.05,-4.17,1022.00,2016.85,3943.01,3013.06,3391.12,0.00,0.00,0.00,0000 0000 0000 A000 020008
2018-09-20 08:26:15,0.00,0.00,0.00,24.76,29.56,31.33,-0.05,-4.13,1021.99,2016.94,3943.13,3013.21,3391.55,0.00,0.00,0.00,0000 0000 0000 A000 020008
2018-09-20 08:31:16,0.00,0.00,0.00,24.74,29.54,31.39,-0.05,-4.14,1021.99,2016.97,3943.39,3013.54,3391.84,0.00,0.00,0.00,0000 0000 0000 A000 020008
2018-09-20 08:36:17,0.00,0.00,0.00,24.72,29.52,31.32,-0.05,-4.17,1022.00,2016.98,3943.56,3013.73,3391.92,0.00,0.00,0.00,0000 0000 0000 A000 020008
2018-09-20 08:41:18,0.00,0.00,0.00,24.70,29.50,31.31,-0.05,-4.20,1022.01,2016.99,3943.93,3013.95,3391.98,0.00,0.00,0.00,0000 0000 0000 A000 020008
2018-09-20 08:46:20,0.00,0.00,0.00,24.68,29.48,31.35,-0.05,-4.23,1022.00,2016.99,3943.96,3013.98,3391.99,0.00,0.00,0.00,0000 0000 0000 A000 020008
2018-09-20 08:51:20,0.00,0.00,0.00,24.66,29.46,31.25,-0.05,-4.22,1022.00,2016.99,3943.99,3013.99,3391.99,0.00,0.00,0.00,0000 0000 0000 A000 020008
2018-09-20 08:56:22,0.00,0.00,0.00,24.63,29.45,31.25,-0.05,-4.17,1022.01,2016.99,3944.01,3014.00,3392.05,0.00,0.00,0.00,0000 0000 0000 A000 020008
2018-09-20 09:01:23,0.00,0.00,0.00,24.61,29.42,31.18,-0.05,-4.16,1022.01,2017.01,3944.02,3014.02,3392.11,0.00,0.00,0.00,0000 0000 0000 A000 020008
2018-09-20 09:06:25,0.00,0.00,0.00,24.59,29.40,31.17,-0.05,-4.17,1022.02,2017.01,3944.06,3014.05,3392.45,0.00,0.00,0.00,0000 0000 0000 A000 020008
2018-09-20 09:11:26,0.00,0.00,0.00,24.56,29.39,31.16,-0.05,-4.13,1022.02,2017.05,3944.44,3014.30,3392.84,0.00,0.00,0.00,0001 0000 0000 A000 420008
2018-09-20 09:16:27,0.00,0.00,0.00,24.54,29.37,31.07,-0.05,-4.11,1022.03,2017.21,3944.94,3014.82,3392.99,0.00,0.00,0.00,0001 0000 0000 A000 420008
2018-09-20 09:21:28,0.00,0.00,0.00,24.52,29.35,31.03,-0.05,-4.19,1022.05,2017.63,3944.99,3014.96,3392.99,0.00,0.00,0.00,0000 0000 0000 A000 020008
2018-09-20 09:26:29,0.00,0.00,0.00,24.51,29.32,31.07,-0.05,-4.17,1022.07,2017.86,3944.99,3014.99,3392.99,0.00,0.00,0.00,0000 0000 0000 A000 020008
2018-09-20 09:31:30,0.00,0.00,0.00,24.48,29.31,31.05,-0.05,-4.15,1022.07,2017.94,3944.99,3014.99,3393.01,0.00,0.00,0.00,0000 0000 0000 A000 020008
2018-09-20 09:36:31,0.00,0.00,0.00,24.46,29.29,31.11,-0.05,-4.17,1022.25,2017.97,3945.01,3015.00,3393.09,0.00,0.00,0.00,0000 0000 0000 A000 020008
2018-09-20 09:41:32,0.00,0.00,0.00,24.44,29.26,31.12,-0.05,-4.17,1022.36,2017.99,3945.14,3015.02,3393.54,0.00,0.00,0.00,0000 0000 0000 A000 020008
2018-09-20 09:46:33,0.00,0.00,0.00,24.42,29.25,31.08,-0.05,-4.17,1022.38,2017.99,3945.62,3015.20,3393.89,0.00,0.00,0.00,0000 0000 0000 A000 020008
2018-09-20 09:51:34,0.00,0.00,0.00,24.40,29.22,31.00,-0.05,-4.14,1022.39,2017.99,3945.96,3015.79,3393.99,0.00,0.00,0.00,0000 0000 0000 A000 020008
2018-09-20 09:56:35,0.00,0.00,0.00,24.37,29.20,30.93,-0.05,-4.09,1022.28,2017.99,3945.99,3015.94,3393.99,0.00,0.00,0.00,0000 0000 0000 A000 020008
2018-09-20 10:01:36,0.00,0.00,0.00,24.35,29.18,31.04,-0.05,-4.03,1022.16,2018.00,3945.99,3015.99,3393.99,0.00,0.00,0.00,0000 0000 0000 A000 020008
2018-09-20 10:06:37,0.00,0.00,0.00,24.32,29.16,30.95,-0.05,-4.01,1022.13,2018.05,3946.03,3015.99,3394.09,0.00,0.00,0.00,0000 0000 0000 A000 020008
2018-09-20 10:11:38,0.00,0.00,0.00,24.30,29.14,30.82,-0.05,-4.00,1022.16,2018.07,3946.18,3016.00,3394.33,0.00,0.00,0.00,0000 0000 0000 A000 020008
2018-09-20 10:16:39,0.00,0.00,0.00,24.28,29.12,30.84,-0.05,-4.02,1022.27,2018.24,3946.42,3016.01,3394.72,0.00,0.00,0.00,0000 0000 0000 A000 020008
2018-09-20 10:21:40,0.00,0.00,0.00,24.25,29.10,30.81,-0.05,-4.00,1022.11,2018.74,3946.90,3016.23,3394.95,0.00,0.00,0.00,0000 0000 0000 A000 020008
2018-09-20 10:26:42,0.00,0.00,0.00,24.22,29.07,30.79,-0.05,-4.01,1022.06,2018.95,3946.99,3016.81,3394.99,0.00,0.00,0.00,0000 0000 0000 A000 020008
2018-09-20 10:31:43,0.00,0.00,0.00,24.21,29.05,30.71,-0.05,-4.02,1022.03,2018.97,3946.99,3016.92,3395.00,0.00,0.00,0.00,0000 0000 0000 A000 020008
2018-09-20 10:36:44,0.00,0.00,0.00,24.18,29.03,30.76,-0.05,-4.03,1022.06,2018.97,3947.00,3016.98,3395.01,0.00,0.00,0.00,0000 0000 0000 A000 020008
2018-09-20 10:41:45,0.00,0.00,0.00,24.15,29.01,30.70,-0.05,-4.07,1022.15,2018.99,3947.02,3016.99,3395.04,0.00,0.00,0.00,0000 0000 0000 A000 020008
2018-09-20 10:46:46,0.00,0.00,0.00,24.13,28.99,30.73,-0.05,-4.04,1022.21,2018.99,3947.29,3016.99,3395.46,0.00,0.00,0.00,0000 0000 0000 A000 020008
2018-09-20 10:51:48,0.00,0.00,0.00,24.11,28.96,30.72,-0.05,-4.03,1022.26,2018.99,3947.87,3016.99,3395.93,0.00,0.00,0.00,0000 0000 0000 A000 020008
2018-09-20 10:56:49,0.00,0.00,0.00,24.08,28.95,30.67,-0.05,-4.03,1022.33,2018.99,3947.97,3017.07,3395.98,0.00,0.00,0.00,0000 0000 0000 A000 020008
2018-09-20 11:01:50,0.00,0.00,0.00,24.06,28.92,30.56,-0.05,-4.03,1022.40,2019.02,3947.99,3017.53,3395.99,0.00,0.00,0.00,0000 0000 0000 A000 020008
2018-09-20 11:06:52,0.00,0.00,0.00,24.03,28.90,30.67,-0.05,-4.02,1022.41,2019.07,3948.01,3017.91,3396.01,0.00,0.00,0.00,0000 0000 0000 A000 020008
2018-09-20 11:11:53,0.00,0.00,0.00,24.00,28.87,30.57,-0.05,-4.03,1022.44,2019.26,3948.03,3017.97,3396.07,0.00,0.00,0.00,0000 0000 0000 A000 020008
2018-09-20 11:16:54,0.00,0.00,0.00,23.99,28.85,30.58,-0.05,-4.01,1022.46,2019.58,3948.22,3017.99,3396.51,0.00,0.00,0.00,0000 0000 0000 A000 020008
2018-09-20 11:21:55,0.00,0.00,0.00,23.96,28.83,30.56,-0.05,-4.03,1022.45,2019.89,3948.79,3017.99,3396.92,0.00,0.00,0.00,0000 0000 0000 A000 020008
2018-09-20 11:26:56,0.00,0.00,0.00,23.94,28.81,30.46,-0.05,-4.00,1022.39,2019.97,3948.98,3018.00,3396.98,0.00,0.00,0.00,0000 0000 0000 A000 020008
2018-09-20 11:31:57,0.00,0.00,0.00,23.91,28.78,30.55,-0.05,-4.00,1022.41,2019.97,3948.99,3018.10,3396.99,0.00,0.00,0.00,0000 0000 0000 A000 020008
2018-09-20 11:36:58,0.00,0.00,0.00,23.89,28.76,30.55,-0.05,-4.03,1022.38,2019.99,3948.99,3018.63,3396.99,0.00,0.00,0.00,0000 0000 0000 A000 020008
2018-09-20 11:42:00,0.00,0.00,0.00,23.87,28.74,30.47,-0.05,-4.01,1022.41,2019.99,3949.03,3018.93,3397.07,0.00,0.00,0.00,0000 0000 0000 A000 020008
2018-09-20 11:47:01,0.00,0.00,0.00,23.85,28.71,30.44,-0.05,-4.02,1022.37,2020.00,3949.42,3018.98,3397.64,0.00,0.00,0.00,0000 0000 0000 A000 020008
2018-09-20 11:52:02,0.00,0.00,0.00,23.82,28.69,30.47,-0.05,-4.02,1022.23,2020.01,3949.91,3018.99,3397.97,0.00,0.00,0.00,0000 0000 0000 A000 020008
2018-09-20 11:57:03,0.00,0.00,0.00,23.80,28.67,30.44,-0.05,-4.00,1022.12,2020.05,3949.97,3019.00,3397.99,0.00,0.00,0.00,0000 0000 0000 A000 020008
2018-09-20 12:02:05,0.00,0.00,0.00,23.77,28.65,30.34,-0.05,-4.00,1022.15,2020.24,3949.99,3019.06,3397.99,0.00,0.00,0.00,0000 0000 0000 A000 020008
2018-09-20 12:07:06,0.00,0.00,0.00,23.75,28.62,30.39,-0.05,-4.01,1022.12,2020.62,3950.02,3019.47,3398.05,0.00,0.00,0.00,0000 0000 0000 A000 020008
2018-09-20 12:12:07,0.00,0.00,0.00,23.72,28.60,30.30,-0.05,-4.00,1022.13,2020.95,3950.29,3019.91,3398.33,0.00,0.00,0.00,0000 0000 0000 A000 020008
2018-09-20 12:17:08,0.00,0.00,0.00,23.70,28.57,30.30,-0.05,-4.01,1022.11,2020.97,3950.87,3019.99,3398.87,0.00,0.00,0.00,0000 0000 0000 A000 020008
2018-09-20 12:22:10,0.00,0.00,0.00,23.68,28.55,30.25,-0.05,-4.00,1022.07,2020.99,3950.98,3019.99,3398.98,0.00,0.00,0.00,0000 0000 0000 A000 020008
2018-09-20 12:27:11,0.00,0.00,0.00,23.66,28.52,30.22,-0.05,-4.00,1022.04,2020.99,3950.99,3020.00,3399.00,0.00,0.00,0.00,0000 0000 0000 A000 020008
2018-09-20 12:32:12,0.00,0.00,0.00,23.63,28.50,30.26,-0.05,-4.01,1022.03,2020.99,3951.01,3020.06,3399.01,0.00,0.00,0.00,0000 0000 0000 A000 020008
2018-09-20 12:37:14,0.00,0.00,0.00,23.61,28.48,30.18,-0.05,-4.00,1022.02,2021.00,3951.03,3020.13,3399.02,0.00,0.00,0.00,0000 0000 0000 A000 020008
2018-09-20 12:42:15,0.00,0.00,0.00,23.58,28.46,30.16,-0.05,-4.00,1022.04,2021.01,3951.13,3020.42,3399.15,0.00,0.00,0.00,0000 0000 0000 A000 020008
2018-09-20 12:47:16,0.00,0.00,0.00,23.56,28.43,30.18,-0.05,-4.01,1022.02,2021.04,3951.72,3020.90,3399.72,0.00,0.00,0.00,0000 0000 0000 A000 020008
2018-09-20 12:52:18,0.00,0.00,0.00,23.54,28.41,30.12,-0.05,-4.00,1022.01,2021.24,3951.97,3020.98,3399.97,0.00,0.00,0.00,0000 0000 0000 A000 020008
2018-09-20 12:57:19,0.00,0.00,0.00,23.51,28.38,30.12,-0.05,-4.00,1022.00,2021.63,3951.99,3020.99,3399.99,0.00,0.00,0.00,0000 0000 0000 A000 020008
2018-09-20 13:02:20,0.00,0.00,0.00,23.50,28.36,30.06,-0.05,-4.00,1022.00,2021.95,3952.00,3021.02,3400.00,0.00,0.00,0.00,0000 0000 0000 A000 020008
2018-09-20 13:07:21,0.00,0.00,0.00,23.47,28.34,30.09,-0.05,-4.00,1022.00,2021.97,3952.03,3021.07,3400.04,0.00,0.00,0.00,0000 0000 0000 A000 020008
2018-09-20 13:12:22,0.00,0.00,0.00,23.45,28.31,30.02,-0.05,-4.00,1021.99,2021.98,3952.32,3021.33,3400.41,0.00,0.00,0.00,0000 0000 0000 A000 020008
2018-09-20 13:17:24,0.00,0.00,0.00,23.42,28.29,29.93,-0.05,-4.00,1021.99,2021.98,3952.74,3021.78,3400.80,0.00,0.00,0.00,0000 0000 0000 A000 020008
2018-09-20 13:22:25,0.00,0.00,0.00,23.39,28.27,29.91,-0.05,-4.00,1021.99,2021.99,3952.98,3021.98,3400.99,0.00,0.00,0.00,0000 0000 0000 A000 020008